Location: *
(44.1392°N, 4.8079°E)
Time: 00:11:15
(UTC+00:00)

deb Agena D - Pass Details

Date: 01 February 2022
Orbit: 936 x 1065 km, 100.4° (Epoch: 16 May)

Event Time Altitude Azimuth Distance (km) Brightness Sun altitude
Exits shadow 20:12:19 15° 0° (N) 2,477 ? -36.3°
Drops below altitude 10° 20:13:25 10° 356° (N) 2,856 ? -36.4°
Sets 20:16:05 0° 350° (N) 3,828 ? -36.9°
